This is the latest recevied weather packets stored in our database for station/object N8ESC. If no packets are shown the sender has not sent any weather packets the latest 10 day(s).
| Time | Temp. | Humidity | Pressure | Rain* | Wind** | Luminosity | Snow |
|---|---|---|---|---|---|---|---|
| 1778001014 | 10° C | 37% | 1003.4 hPa | 0 mm | - | 273 W/m² | - |
| 1778000710 | 10° C | 38% | 1003.5 hPa | 0 mm | - | 384 W/m² | - |
| 1778000407 | 10° C | 40% | 1003.5 hPa | 0 mm | - | 303 W/m² | - |
| 1778000102 | 10° C | 38% | 1003.7 hPa | 0 mm | - | 297 W/m² | - |
| 1777999798 | 9.44° C | 41% | 1003.5 hPa | 0 mm | - | 362 W/m² | - |
| 1777999494 | 9.44° C | 42% | 1003.5 hPa | 0 mm | - | 218 W/m² | - |
| 1777999192 | 9.44° C | 40% | 1003.5 hPa | 0 mm | - | 177 W/m² | - |
| 1777998891 | 10° C | 40% | 1003.4 hPa | 0 mm | - | 206 W/m² | - |
| 1777998590 | 10.56° C | 39% | 1003.4 hPa | 0 mm | - | 447 W/m² | - |
| 1777998285 | 9.44° C | 41% | 1003.4 hPa | 0 mm | - | 758 W/m² | - |
| 1777997982 | 10° C | 43% | 1003.7 hPa | 0 mm | - | 214 W/m² | - |
| 1777997678 | 9.44° C | 42% | 1003.7 hPa | 0 mm | - | 298 W/m² | - |
| 1777997376 | 9.44° C | 41% | 1003.8 hPa | 0 mm | - | 362 W/m² | - |
| 1777997075 | 9.44° C | 43% | 1003.7 hPa | 0 mm | - | 530 W/m² | - |
| 1777996770 | 9.44° C | 41% | 1003.8 hPa | 0 mm | - | 361 W/m² | - |
| 1777996467 | 8.89° C | 44% | 1003.7 hPa | 0 mm | - | 655 W/m² | - |
| 1777996164 | 10° C | 43% | 1003.5 hPa | 0 mm | - | 324 W/m² | - |
| 1777995860 | 9.44° C | 43% | 1003.6 hPa | 0 mm | - | 274 W/m² | - |
| 1777995556 | 10° C | 42% | 1003.5 hPa | 0 mm | - | 824 W/m² | - |
| 1777995254 | 8.89° C | 42% | 1003.6 hPa | 0 mm | - | 543 W/m² | - |
| 1777994951 | 10° C | 40% | 1003.6 hPa | 0 mm | - | 634 W/m² | - |
| 1777994648 | 9.44° C | 44% | 1003.5 hPa | 0 mm | - | 723 W/m² | - |
| 1777994348 | 8.89° C | 44% | 1003.5 hPa | 0 mm | - | 172 W/m² | - |
| 1777994044 | 9.44° C | 42% | 1003.7 hPa | 0 mm | - | 361 W/m² | - |
| 1777993742 | 9.44° C | 43% | 1003.6 hPa | 0 mm | - | 749 W/m² | - |
* Rain latest hour (hover to see other rain measurements)
** Current wind speed in m/s (hover to see current wind gust speed)